Погода в Подкаменной

Россия / Иркутская область     51°58′03″N   103°54′36″E
темп.,
°C
ветер,
м/с
пор.,
м/с
влажн.,
%
обл.,
%
осадки,
мм/ч
давл.,
гПа
погр.,
м
28 октября, чт
чт2823:00+4зюз116472 0.0 102010
02:00+2сз2272100 0.0 102213
05:00+1зсз389090 0.0 1023270
08:00−1сз379168 0.0 1025257
11:00+1ссз476199 0.0 1027561
14:00−1ссз4784100 0.1 1028612
17:00−1ссз3686100 0.4 1031591
20:00−3сз2492100 0.5 1033201
29 октября, пт
пт2923:00−4зсз11955 0.0 103510
02:00−4ююз009137 0.0 103510
05:00−4ююв118397 0.0 103411
08:00−4ююв118690 0.0 103419
11:00+1ююв25655 0.0 1032518
14:00+3ююв35513 0.0 1029613
17:000ююв38723 0.0 1029357
20:00−2ю38823 0.0 1031218
30 октября, сб
сб3023:00−2ю36834 0.0 1031158
02:00−2ю24895 0.0 103063
05:00−2ю249151 0.0 103056
08:00−2ю239296 0.0 103154
11:00+4ю35665 0.0 1029408
14:00+6ю34575 0.0 1027488
17:00+2ю23794 0.0 102768
20:00−1ю379195 0.0 1027149
31 октября, вс
вс3123:00−1ю389194 0.0 1026150
02:00−1ю359298 0.0 102480
05:00−1ю369362 0.0 1024112
08:00−2ю239216 0.0 102455
11:00+2сз486222 0.0 1026578
14:00+3сз346899 0.0 1025774
17:00+1ссв118181 0.0 102510
20:00−1ююв119293 0.0 102312
1 ноября, пн
пн123:00−1ю2393100 0.0 102050
02:00−1ю259596 0.0 1017108
05:00−1ю359413 0.0 101496
08:00−1ю3793100 0.0 1011164
11:00+4ю31163100 0.0 1009387
14:00+4сз495493 0.0 1011661
17:00+2зсз1171100 0.0 101310
20:00+1сз2276100 0.0 101625